Promitheas — SYIJ — position and weather

sailwx.info

Track history (hours):
 
Tides and Currents Weather Stations Pressure Air Temp Water Temp Dewpoint Dewpoint Depression Visibility Wind Speed Wind Dir Waves Ship Positions

Promitheas

Last reported at 2014-Sep-20 02:13 UTC. Time now 2014-Sep-23 02:15 UTC.
Position N 37°24' E 024°15'.

Length 249 m; draft 12.1 m.

Type: Tanker. MMSI: 240547000.

Date/timePositionNaut miles runAvg speedWind from/ knotsBaromVisibWave heightAir tempDewpointWater temp
2014-Sep-20 02:13N 37°24' E 024°15'911.4
2014-Sep-20 01:23N 37°32' E 024°22'289 8.4
2014-Sep-18 15:05N 40°54' E 028°48'5 9.7
2014-Sep-18 14:32N 40°56' E 028°54'4 4.2
2014-Sep-18 13:33N 40°59' E 028°59'22 9.6
2014-Sep-18 11:17N 41°19' E 029°09'6 6.8
2014-Sep-18 10:26N 41°22' E 029°15'7 8.2
2014-Sep-18 09:33N 41°25' E 029°24'1010.5
2014-Sep-18 08:33N 41°27' E 029°38'  
2014-Sep-13 09:33N 44°22' E 038°01'1110.9
2014-Sep-13 08:33N 44°32' E 037°55'2 1.8
2014-Sep-13 07:31N 44°34' E 037°55'0 0.0
2014-Sep-13 06:31N 44°34' E 037°55'0 0.0
2014-Sep-13 05:31N 44°34' E 037°55'0 0.0
2014-Sep-13 04:31N 44°34' E 037°55'0 0.0
2014-Sep-13 03:31N 44°34' E 037°55'0 0.1
2014-Sep-13 02:31N 44°34' E 037°55'0 0.0
2014-Sep-13 01:31N 44°34' E 037°55'0 0.0
2014-Sep-13 00:28N 44°34' E 037°55'0 0.0
2014-Sep-12 23:31N 44°34' E 037°55'0 0.0
2014-Sep-12 22:31N 44°34' E 037°55'0 0.0
2014-Sep-12 21:31N 44°34' E 037°55'0 0.0
2014-Sep-12 20:28N 44°34' E 037°55'0 0.0
2014-Sep-12 19:31N 44°34' E 037°55'0 0.0
2014-Sep-12 18:31N 44°34' E 037°55'0 0.0
2014-Sep-12 17:31N 44°34' E 037°55'0 0.0
2014-Sep-12 16:31N 44°34' E 037°55'0 0.0
2014-Sep-12 15:31N 44°34' E 037°55'0 0.0
2014-Sep-12 14:31N 44°34' E 037°55'0 0.0
2014-Sep-12 13:31N 44°34' E 037°55'0 0.0
2014-Sep-12 12:31N 44°34' E 037°55'0 0.0
2014-Sep-12 11:31N 44°34' E 037°55'0 0.0
2014-Sep-12 10:31N 44°34' E 037°55'0 0.0
2014-Sep-12 09:31N 44°34' E 037°55'0 0.0
2014-Sep-12 08:31N 44°34' E 037°55'0 0.0
2014-Sep-12 07:31N 44°34' E 037°55'0 0.1
2014-Sep-12 06:31N 44°34' E 037°55'0 0.1
2014-Sep-12 05:31N 44°34' E 037°55'0 0.0
2014-Sep-12 04:31N 44°34' E 037°55'0 0.0
2014-Sep-12 03:31N 44°34' E 037°55'0 0.0
2014-Sep-12 02:31N 44°34' E 037°55'0 0.0
2014-Sep-12 01:31N 44°34' E 037°55'0 0.0
2014-Sep-12 00:31N 44°34' E 037°55'0 0.1
2014-Sep-11 23:31N 44°34' E 037°55'0 0.0
2014-Sep-11 22:31N 44°34' E 037°55'0 0.0
2014-Sep-11 21:25N 44°34' E 037°55'0 0.0
2014-Sep-11 20:31N 44°34' E 037°55'0 0.0
2014-Sep-11 19:31N 44°34' E 037°55'0 0.0
2014-Sep-11 18:31N 44°34' E 037°55'0 0.1
2014-Sep-11 17:31N 44°34' E 037°55'0 0.0
2014-Sep-11 16:31N 44°34' E 037°55'0 0.0
2014-Sep-11 15:31N 44°34' E 037°55'0 0.0
2014-Sep-11 14:32N 44°34' E 037°55'0 0.0
2014-Sep-11 13:31N 44°34' E 037°55'0 0.0
2014-Sep-11 12:31N 44°34' E 037°55'0 0.0
2014-Sep-11 11:31N 44°34' E 037°55'0 0.0
2014-Sep-11 10:31N 44°34' E 037°55'0 0.0
2014-Sep-11 09:31N 44°34' E 037°55'0 0.0
2014-Sep-11 08:31N 44°34' E 037°55'0 0.0
2014-Sep-11 07:31N 44°34' E 037°55'0 0.0
2014-Sep-11 06:31N 44°34' E 037°55'0 0.0
2014-Sep-11 05:31N 44°34' E 037°55'0 0.0
2014-Sep-11 04:31N 44°34' E 037°55'0 0.0
2014-Sep-11 03:31N 44°34' E 037°55'0 0.0
2014-Sep-11 02:31N 44°34' E 037°55'0 0.0
2014-Sep-11 01:31N 44°34' E 037°55'0 0.0
2014-Sep-11 00:31N 44°34' E 037°55'0 0.0
2014-Sep-10 23:31N 44°34' E 037°55'0 0.3
2014-Sep-10 22:34N 44°34' E 037°55'9 8.7
2014-Sep-10 21:34N 44°29' E 037°44'1111.2
2014-Sep-10 20:32N 44°24' E 037°30'13511.1
2014-Sep-10 08:21N 43°22' E 034°44'  
Track history (hours):
 
Tides and Currents Weather Stations Pressure Air Temp Water Temp Dewpoint Dewpoint Depression Visibility Wind Speed Wind Dir Waves Ship Positions

Promitheas

Last reported at 2014-Sep-20 02:13 UTC. Time now 2014-Sep-23 02:15 UTC.
Position N 37°24' E 024°15'.

Length 249 m; draft 12.1 m.

Type: Tanker. MMSI: 240547000.

Date/timePositionNaut miles runAvg speedWind from/ knotsBaromVisibWave heightAir tempDewpointWater temp
2014-Sep-20 02:13N 37°24' E 024°15'911.4
2014-Sep-20 01:23N 37°32' E 024°22'289 8.4
2014-Sep-18 15:05N 40°54' E 028°48'5 9.7
2014-Sep-18 14:32N 40°56' E 028°54'4 4.2
2014-Sep-18 13:33N 40°59' E 028°59'22 9.6
2014-Sep-18 11:17N 41°19' E 029°09'6 6.8
2014-Sep-18 10:26N 41°22' E 029°15'7 8.2
2014-Sep-18 09:33N 41°25' E 029°24'1010.5
2014-Sep-18 08:33N 41°27' E 029°38'  
2014-Sep-13 09:33N 44°22' E 038°01'1110.9
2014-Sep-13 08:33N 44°32' E 037°55'2 1.8
2014-Sep-13 07:31N 44°34' E 037°55'0 0.0
2014-Sep-13 06:31N 44°34' E 037°55'0 0.0
2014-Sep-13 05:31N 44°34' E 037°55'0 0.0
2014-Sep-13 04:31N 44°34' E 037°55'0 0.0
2014-Sep-13 03:31N 44°34' E 037°55'0 0.1
2014-Sep-13 02:31N 44°34' E 037°55'0 0.0
2014-Sep-13 01:31N 44°34' E 037°55'0 0.0
2014-Sep-13 00:28N 44°34' E 037°55'0 0.0
2014-Sep-12 23:31N 44°34' E 037°55'0 0.0
2014-Sep-12 22:31N 44°34' E 037°55'0 0.0
2014-Sep-12 21:31N 44°34' E 037°55'0 0.0
2014-Sep-12 20:28N 44°34' E 037°55'0 0.0
2014-Sep-12 19:31N 44°34' E 037°55'0 0.0
2014-Sep-12 18:31N 44°34' E 037°55'0 0.0
2014-Sep-12 17:31N 44°34' E 037°55'0 0.0
2014-Sep-12 16:31N 44°34' E 037°55'0 0.0
2014-Sep-12 15:31N 44°34' E 037°55'0 0.0
2014-Sep-12 14:31N 44°34' E 037°55'0 0.0
2014-Sep-12 13:31N 44°34' E 037°55'0 0.0
2014-Sep-12 12:31N 44°34' E 037°55'0 0.0
2014-Sep-12 11:31N 44°34' E 037°55'0 0.0
2014-Sep-12 10:31N 44°34' E 037°55'0 0.0
2014-Sep-12 09:31N 44°34' E 037°55'0 0.0
2014-Sep-12 08:31N 44°34' E 037°55'0 0.0
2014-Sep-12 07:31N 44°34' E 037°55'0 0.1
2014-Sep-12 06:31N 44°34' E 037°55'0 0.1
2014-Sep-12 05:31N 44°34' E 037°55'0 0.0
2014-Sep-12 04:31N 44°34' E 037°55'0 0.0
2014-Sep-12 03:31N 44°34' E 037°55'0 0.0
2014-Sep-12 02:31N 44°34' E 037°55'0 0.0
2014-Sep-12 01:31N 44°34' E 037°55'0 0.0
2014-Sep-12 00:31N 44°34' E 037°55'0 0.1
2014-Sep-11 23:31N 44°34' E 037°55'0 0.0
2014-Sep-11 22:31N 44°34' E 037°55'0 0.0
2014-Sep-11 21:25N 44°34' E 037°55'0 0.0
2014-Sep-11 20:31N 44°34' E 037°55'0 0.0
2014-Sep-11 19:31N 44°34' E 037°55'0 0.0
2014-Sep-11 18:31N 44°34' E 037°55'0 0.1
2014-Sep-11 17:31N 44°34' E 037°55'0 0.0
2014-Sep-11 16:31N 44°34' E 037°55'0 0.0
2014-Sep-11 15:31N 44°34' E 037°55'0 0.0
2014-Sep-11 14:32N 44°34' E 037°55'0 0.0
2014-Sep-11 13:31N 44°34' E 037°55'0 0.0
2014-Sep-11 12:31N 44°34' E 037°55'0 0.0
2014-Sep-11 11:31N 44°34' E 037°55'0 0.0
2014-Sep-11 10:31N 44°34' E 037°55'0 0.0
2014-Sep-11 09:31N 44°34' E 037°55'0 0.0
2014-Sep-11 08:31N 44°34' E 037°55'0 0.0
2014-Sep-11 07:31N 44°34' E 037°55'0 0.0
2014-Sep-11 06:31N 44°34' E 037°55'0 0.0
2014-Sep-11 05:31N 44°34' E 037°55'0 0.0
2014-Sep-11 04:31N 44°34' E 037°55'0 0.0
2014-Sep-11 03:31N 44°34' E 037°55'0 0.0
2014-Sep-11 02:31N 44°34' E 037°55'0 0.0
2014-Sep-11 01:31N 44°34' E 037°55'0 0.0
2014-Sep-11 00:31N 44°34' E 037°55'0 0.0
2014-Sep-10 23:31N 44°34' E 037°55'0 0.3
2014-Sep-10 22:34N 44°34' E 037°55'9 8.7
2014-Sep-10 21:34N 44°29' E 037°44'1111.2
2014-Sep-10 20:32N 44°24' E 037°30'13511.1
2014-Sep-10 08:21N 43°22' E 034°44'  

Dump ship's entire track history